TYA5221 UIII-UIBB

Flight info

Callsign TYA5221
Flight time 0h 46m
Altitude 30000
Route BOGRA4D BOGRA A815 GIMED GIMED5B
Aircraft B38M/M-SDE1FGHILORVWXY/HB1

Departure

Time 2026-05-09 10:26
Airport Irkutsk International Airport (UIII)

Arrival

Time 2026-05-09 11:12
Airport Bratsk Airport (UIBB)
Time Latitude Longitude Altitude Speed Heading
2026-05-09 10:00 52.27132 104.36055 1599 ft 0 kts 356°
2026-05-09 10:16 52.27143 104.36054 1598 ft 3 kts 356°
2026-05-09 10:16 52.27175 104.36071 1597 ft 6 kts 57°
2026-05-09 10:16 52.27185 104.36156 1596 ft 8 kts 87°
2026-05-09 10:17 52.27184 104.36266 1596 ft 10 kts 101°
2026-05-09 10:17 52.27159 104.36379 1598 ft 10 kts 111°
2026-05-09 10:17 52.27132 104.36497 1599 ft 11 kts 109°
2026-05-09 10:17 52.27105 104.36620 1601 ft 11 kts 109°
2026-05-09 10:18 52.27076 104.36750 1604 ft 11 kts 109°
2026-05-09 10:18 52.27054 104.36855 1606 ft 8 kts 110°
2026-05-09 10:18 52.27031 104.36957 1605 ft 10 kts 110°
2026-05-09 10:18 52.27005 104.37066 1607 ft 9 kts 110°
2026-05-09 10:19 52.26988 104.37167 1608 ft 8 kts 82°
2026-05-09 10:19 52.27003 104.37268 1607 ft 9 kts 104°
2026-05-09 10:19 52.26980 104.37364 1608 ft 8 kts 113°
2026-05-09 10:19 52.26956 104.37453 1610 ft 8 kts 114°
2026-05-09 10:20 52.26928 104.37554 1611 ft 10 kts 114°
2026-05-09 10:20 52.26895 104.37678 1613 ft 12 kts 114°
2026-05-09 10:20 52.26855 104.37821 1615 ft 14 kts 114°
2026-05-09 10:20 52.26810 104.37989 1618 ft 17 kts 113°
2026-05-09 10:21 52.26759 104.38182 1621 ft 19 kts 113°
2026-05-09 10:21 52.26704 104.38391 1626 ft 20 kts 113°
2026-05-09 10:21 52.26646 104.38615 1631 ft 21 kts 113°
2026-05-09 10:21 52.26590 104.38825 1636 ft 19 kts 113°
2026-05-09 10:22 52.26532 104.39045 1639 ft 21 kts 113°
2026-05-09 10:22 52.26472 104.39269 1646 ft 21 kts 113°
2026-05-09 10:22 52.26414 104.39490 1648 ft 22 kts 113°
2026-05-09 10:22 52.26347 104.39741 1648 ft 25 kts 113°
2026-05-09 10:23 52.26272 104.40024 1641 ft 30 kts 113°
2026-05-09 10:23 52.26183 104.40356 1640 ft 31 kts 113°
2026-05-09 10:23 52.26103 104.40660 1647 ft 25 kts 112°
2026-05-09 10:23 52.26043 104.40884 1652 ft 18 kts 113°
2026-05-09 10:24 52.26002 104.41045 1658 ft 12 kts 104°
2026-05-09 10:24 52.26006 104.41139 1662 ft 5 kts 62°
2026-05-09 10:24 52.26030 104.41182 1663 ft 6 kts 34°
2026-05-09 10:24 52.26091 104.41229 1664 ft 13 kts 23°
2026-05-09 10:25 52.26199 104.41286 1664 ft 19 kts 350°
2026-05-09 10:25 52.26284 104.41080 1659 ft 33 kts 294°
2026-05-09 10:25 52.26479 104.40348 1643 ft 107 kts 292°
2026-05-09 10:25 52.26862 104.38903 1625 ft 168 kts 293°
2026-05-09 10:26 52.27361 104.36961 1931 ft 197 kts 292°
2026-05-09 10:26 52.27853 104.34856 2636 ft 200 kts 291°
2026-05-09 10:26 52.28367 104.32877 3462 ft 190 kts 295°
2026-05-09 10:26 52.28964 104.30813 3509 ft 215 kts 295°
2026-05-09 10:27 52.29706 104.28536 3747 ft 234 kts 307°
2026-05-09 10:27 52.30980 104.26814 4155 ft 250 kts 335°
2026-05-09 10:27 52.32668 104.26020 4785 ft 256 kts 345°
2026-05-09 10:27 52.34416 104.25382 5414 ft 261 kts 342°
2026-05-09 10:28 52.36151 104.24545 6113 ft 262 kts 339°
2026-05-09 10:28 52.37871 104.23576 6799 ft 264 kts 338°
2026-05-09 10:28 52.39572 104.22569 7468 ft 265 kts 337°
2026-05-09 10:28 52.41308 104.21532 8136 ft 267 kts 337°
2026-05-09 10:29 52.43049 104.20493 8792 ft 268 kts 337°
2026-05-09 10:29 52.44801 104.19450 9433 ft 270 kts 337°
2026-05-09 10:29 52.46545 104.18415 10054 ft 271 kts 337°
2026-05-09 10:29 52.48384 104.17318 10340 ft 294 kts 338°
2026-05-09 10:30 52.50359 104.16146 10831 ft 310 kts 338°
2026-05-09 10:30 52.52442 104.14915 11185 ft 319 kts 338°
2026-05-09 10:30 52.54532 104.13686 11823 ft 319 kts 338°
2026-05-09 10:30 52.56609 104.12460 12302 ft 322 kts 338°
2026-05-09 10:31 52.58728 104.11208 12675 ft 330 kts 338°
2026-05-09 10:31 52.60977 104.09878 12871 ft 355 kts 338°
2026-05-09 10:31 52.63380 104.08462 12990 ft 380 kts 338°
2026-05-09 10:31 52.65881 104.07002 13610 ft 390 kts 339°
2026-05-09 10:32 52.68446 104.05504 14071 ft 394 kts 339°
2026-05-09 10:32 52.71054 104.03978 14371 ft 397 kts 339°
2026-05-09 10:32 52.73667 104.02447 14745 ft 398 kts 339°
2026-05-09 10:32 52.76266 104.00923 15024 ft 401 kts 339°
2026-05-09 10:33 52.78912 103.99372 15365 ft 402 kts 339°
2026-05-09 10:33 52.81543 103.97830 15661 ft 404 kts 339°
2026-05-09 10:33 52.84201 103.96273 15960 ft 406 kts 339°
2026-05-09 10:33 52.86848 103.94724 16254 ft 408 kts 339°
2026-05-09 10:34 52.89542 103.93149 16539 ft 410 kts 339°
2026-05-09 10:34 52.94924 103.90005 17093 ft 413 kts 339°
2026-05-09 10:34 52.97640 103.88422 17363 ft 415 kts 339°
2026-05-09 10:35 53.00366 103.86834 17614 ft 417 kts 339°
2026-05-09 10:35 53.03101 103.85242 17846 ft 419 kts 340°
2026-05-09 10:35 53.05841 103.83649 18095 ft 421 kts 340°
2026-05-09 10:35 53.08594 103.82051 18331 ft 423 kts 340°
2026-05-09 10:36 53.11378 103.80436 18557 ft 425 kts 340°
2026-05-09 10:36 53.14178 103.78811 18802 ft 426 kts 340°
2026-05-09 10:36 53.16905 103.76900 19034 ft 428 kts 335°
2026-05-09 10:36 53.19606 103.74802 19296 ft 429 kts 335°
2026-05-09 10:37 53.22303 103.72683 19501 ft 431 kts 335°
2026-05-09 10:37 53.25022 103.70546 19748 ft 432 kts 335°
2026-05-09 10:37 53.27717 103.68429 19978 ft 433 kts 335°
2026-05-09 10:37 53.30467 103.66268 20197 ft 435 kts 335°
2026-05-09 10:38 53.33213 103.64111 20426 ft 436 kts 335°
2026-05-09 10:38 53.35952 103.61958 20638 ft 437 kts 335°
2026-05-09 10:38 53.38700 103.59797 20844 ft 439 kts 335°
2026-05-09 10:38 53.41439 103.57639 21053 ft 440 kts 335°
2026-05-09 10:39 53.44217 103.55450 21267 ft 441 kts 335°
2026-05-09 10:39 53.46997 103.53256 21454 ft 443 kts 335°
2026-05-09 10:39 53.49786 103.51054 21660 ft 444 kts 335°
2026-05-09 10:39 53.52596 103.48828 21860 ft 445 kts 335°
2026-05-09 10:40 53.55392 103.46605 22051 ft 446 kts 335°
2026-05-09 10:40 53.58231 103.44348 22233 ft 448 kts 335°
2026-05-09 10:40 53.61050 103.42109 22423 ft 449 kts 335°
2026-05-09 10:40 53.63880 103.39860 22614 ft 450 kts 335°
2026-05-09 10:41 53.66673 103.37640 23094 ft 444 kts 335°
2026-05-09 10:41 53.69463 103.35418 23591 ft 438 kts 335°
2026-05-09 10:41 53.72198 103.33234 24085 ft 432 kts 335°
2026-05-09 10:41 53.74871 103.31094 24582 ft 427 kts 335°
2026-05-09 10:42 53.77530 103.28965 25081 ft 421 kts 335°
2026-05-09 10:42 53.80137 103.26876 25578 ft 416 kts 335°
2026-05-09 10:42 53.82735 103.24792 26080 ft 410 kts 335°
2026-05-09 10:42 53.85292 103.22740 26580 ft 404 kts 335°
2026-05-09 10:43 53.87782 103.20740 27076 ft 398 kts 335°
2026-05-09 10:43 53.90270 103.18740 27578 ft 392 kts 335°
2026-05-09 10:43 53.92718 103.16769 28081 ft 385 kts 335°
2026-05-09 10:43 53.95091 103.14858 28577 ft 378 kts 335°
2026-05-09 10:44 53.97436 103.12968 29141 ft 368 kts 335°
2026-05-09 10:44 53.99685 103.11154 29821 ft 357 kts 335°
2026-05-09 10:44 54.01944 103.09325 29889 ft 369 kts 335°
2026-05-09 10:44 54.04306 103.07418 29893 ft 382 kts 335°
2026-05-09 10:45 54.06755 103.05436 29890 ft 395 kts 335°
2026-05-09 10:46 54.17265 102.96899 29884 ft 444 kts 335°
2026-05-09 10:46 54.20071 102.94598 29885 ft 455 kts 335°
2026-05-09 10:46 54.22964 102.92194 29882 ft 461 kts 335°
2026-05-09 10:47 54.28644 102.87475 29887 ft 453 kts 335°
2026-05-09 10:47 54.34318 102.82771 29886 ft 455 kts 335°
2026-05-09 10:48 54.39982 102.78074 29885 ft 456 kts 335°
2026-05-09 10:48 54.45686 102.73331 29884 ft 456 kts 335°
2026-05-09 10:49 54.51396 102.68580 29885 ft 456 kts 335°
2026-05-09 10:49 54.57093 102.63832 29885 ft 456 kts 335°
2026-05-09 10:50 54.62786 102.59078 29885 ft 455 kts 335°
2026-05-09 10:50 54.68459 102.54330 29885 ft 456 kts 335°
2026-05-09 10:51 54.74128 102.49571 29884 ft 456 kts 335°
2026-05-09 10:51 54.79844 102.44759 29885 ft 456 kts 335°
2026-05-09 10:52 54.85485 102.39994 29884 ft 456 kts 335°
2026-05-09 10:52 54.91180 102.35169 29885 ft 455 kts 336°
2026-05-09 10:53 54.96809 102.30374 29884 ft 452 kts 336°
2026-05-09 10:53 55.02448 102.25561 29885 ft 450 kts 337°
2026-05-09 10:54 55.08048 102.20766 29880 ft 446 kts 337°
2026-05-09 10:54 55.10777 102.18418 29874 ft 427 kts 337°
2026-05-09 10:54 55.13375 102.16174 29554 ft 414 kts 337°
2026-05-09 10:54 55.15908 102.13986 28991 ft 408 kts 337°
2026-05-09 10:55 55.18421 102.11817 28457 ft 401 kts 337°
2026-05-09 10:55 55.20913 102.09664 27932 ft 394 kts 337°
2026-05-09 10:55 55.23336 102.07565 27410 ft 383 kts 337°
2026-05-09 10:55 55.25647 102.05557 26934 ft 368 kts 336°
2026-05-09 10:56 55.27895 102.03601 26464 ft 358 kts 336°
2026-05-09 10:56 55.30140 102.01650 26000 ft 364 kts 336°
2026-05-09 10:56 55.32395 101.99693 25517 ft 366 kts 336°
2026-05-09 10:56 55.34656 101.97723 25019 ft 354 kts 336°
2026-05-09 10:57 55.36831 101.95824 24581 ft 358 kts 336°
2026-05-09 10:57 55.39079 101.93864 24085 ft 359 kts 336°
2026-05-09 10:57 55.41374 101.92234 23550 ft 353 kts 345°
2026-05-09 10:57 55.43718 101.91283 23089 ft 346 kts 352°
2026-05-09 10:58 55.46071 101.90815 22636 ft 341 kts 356°
2026-05-09 10:58 55.48426 101.90633 22183 ft 336 kts 359°
2026-05-09 10:58 55.50765 101.90606 21745 ft 342 kts
2026-05-09 10:58 55.53135 101.90661 21271 ft 339 kts
2026-05-09 10:59 55.55484 101.90756 20814 ft 335 kts
2026-05-09 10:59 55.57798 101.90871 20369 ft 330 kts
2026-05-09 10:59 55.60061 101.90994 19931 ft 331 kts
2026-05-09 10:59 55.62372 101.91127 19482 ft 334 kts
2026-05-09 11:00 55.64700 101.91266 19012 ft 330 kts
2026-05-09 11:00 55.66955 101.91406 18573 ft 325 kts
2026-05-09 11:00 55.69209 101.91553 18132 ft 321 kts
2026-05-09 11:00 55.71439 101.91696 17707 ft 326 kts
2026-05-09 11:01 55.73676 101.91839 17255 ft 325 kts
2026-05-09 11:01 55.75912 101.91981 16809 ft 321 kts
2026-05-09 11:01 55.78145 101.92125 16369 ft 317 kts
2026-05-09 11:01 55.80298 101.92262 15966 ft 314 kts
2026-05-09 11:02 55.82503 101.92401 15644 ft 323 kts
2026-05-09 11:02 55.84764 101.92539 14715 ft 331 kts
2026-05-09 11:02 55.87039 101.92686 13748 ft 331 kts
2026-05-09 11:02 55.89312 101.92831 12782 ft 330 kts
2026-05-09 11:03 55.91596 101.92979 11900 ft 326 kts
2026-05-09 11:03 55.93808 101.93124 11204 ft 319 kts
2026-05-09 11:03 55.96017 101.93265 10582 ft 320 kts
2026-05-09 11:03 55.98245 101.93407 9801 ft 325 kts
2026-05-09 11:04 56.00491 101.93554 9102 ft 315 kts
2026-05-09 11:04 56.02620 101.93695 8658 ft 300 kts
2026-05-09 11:04 56.04632 101.93829 8294 ft 285 kts
2026-05-09 11:04 56.06555 101.93955 7949 ft 271 kts 360°
2026-05-09 11:05 56.08433 101.94077 7622 ft 268 kts 360°
2026-05-09 11:05 56.10273 101.94196 7279 ft 266 kts 360°
2026-05-09 11:05 56.12134 101.94317 6944 ft 263 kts 359°
2026-05-09 11:05 56.13937 101.94434 6618 ft 261 kts 359°
2026-05-09 11:06 56.15741 101.94552 6292 ft 258 kts 359°
2026-05-09 11:06 56.17530 101.94669 5969 ft 256 kts 359°
2026-05-09 11:06 56.19281 101.94996 5642 ft 256 kts
2026-05-09 11:06 56.20988 101.95925 5316 ft 256 kts 18°
2026-05-09 11:07 56.22615 101.97217 4994 ft 256 kts 22°
2026-05-09 11:07 56.24230 101.98474 4675 ft 251 kts
2026-05-09 11:07 56.25908 101.98575 4424 ft 236 kts 351°
2026-05-09 11:07 56.27484 101.98186 4291 ft 223 kts 348°
2026-05-09 11:08 56.28974 101.97751 4201 ft 213 kts 348°
2026-05-09 11:08 56.30314 101.97041 4199 ft 192 kts 321°
2026-05-09 11:08 56.30979 101.95170 4187 ft 175 kts 286°
2026-05-09 11:08 56.31245 101.93080 4039 ft 167 kts 285°
2026-05-09 11:09 56.31571 101.91177 3875 ft 147 kts 291°
2026-05-09 11:09 56.31947 101.89513 3665 ft 142 kts 294°
2026-05-09 11:09 56.32344 101.87934 3513 ft 140 kts 295°
2026-05-09 11:09 56.32763 101.86313 3326 ft 143 kts 295°
2026-05-09 11:10 56.33183 101.84708 3116 ft 141 kts 295°
2026-05-09 11:10 56.33595 101.83107 2927 ft 140 kts 294°
2026-05-09 11:10 56.34006 101.81540 2763 ft 138 kts 296°
2026-05-09 11:10 56.34427 101.79985 2579 ft 138 kts 295°
2026-05-09 11:11 56.34837 101.78413 2392 ft 138 kts 295°
2026-05-09 11:11 56.35243 101.76853 2207 ft 138 kts 294°
2026-05-09 11:11 56.35655 101.75307 2023 ft 138 kts 296°
2026-05-09 11:11 56.36057 101.73733 1844 ft 138 kts 293°
2026-05-09 11:12 56.36457 101.72154 1641 ft 138 kts 294°
2026-05-09 11:12 56.36845 101.70645 1598 ft 114 kts 291°
2026-05-09 11:12 56.37086 101.69727 1599 ft 53 kts 296°
2026-05-09 11:12 56.37196 101.69289 1597 ft 28 kts 290°
2026-05-09 11:13 56.37148 101.69070 1593 ft 16 kts 205°